Terminal Aerodrome Forecast
Issued by NWS Blacksburg, VA

Current Version | Previous Version | Graphics & Text | Print | Product List | Glossary On
Versions: 1 2 3 4 5 6 7 8 9 10 11 12 13 14 15 16 17 18 19 20 21 22 23 24 25 26 27 28 29 30 31 32 33 34 35 36 37 38 39 40 41
000
FTUS41 KRNK 261120
TAFBLF
TAF
KBLF 261120Z 2612/2712 08003KT 2SM -SN BR BKN003 OVC010
      TEMPO 2612/2615 1/2SM SN FG OVC001
     FM261700 31006KT 4SM BR SCT005 OVC012
     FM270000 24004KT P6SM BKN015 OVC035
     FM270800 26005KT 5SM -SHSN OVC050=

USA.gov is the U.S. government's official web portal to all federal, state and local government web resources and services.